﻿fDate,fYearWeek,fYearMonth,fYearQuarter,fYear,Month,MM Name,Quarter,fYearQuarterMonth,Month Year,Lookup Leap,Month End Date,Month Start Date,DayofMonth,JulianDay,DayOfWeek,DayOfMonth,DayOfYear,12end,is12weekstart,DayName,full_fiscal,half_fiscal,exceldate,DaysleftinMonth
2024-01-01,2024-W01,2024-M01,2024-Q4,2024,1,Jan,Q4,2024-Q4-01,Jan-2024,53,2024-01-31,2024-01-01,1st,2460311,1,1,1,2024-03-24,True,Monday,2023-2024,2023-24,45292,30
2024-01-02,2024-W01,2024-M01,2024-Q4,2024,1,Jan,Q4,2024-Q4-01,Jan-2024,53,2024-01-31,2024-01-01,2nd,2460312,2,2,2,,False,Tuesday,2023-2024,2023-24,45293,29
2024-01-03,2024-W01,2024-M01,2024-Q4,2024,1,Jan,Q4,2024-Q4-01,Jan-2024,53,2024-01-31,2024-01-01,3rd,2460313,3,3,3,,False,Wednesday,2023-2024,2023-24,45294,28
2024-01-04,2024-W01,2024-M01,2024-Q4,2024,1,Jan,Q4,2024-Q4-01,Jan-2024,53,2024-01-31,2024-01-01,4th,2460314,4,4,4,,False,Thursday,2023-2024,2023-24,45295,27
2024-01-05,2024-W01,2024-M01,2024-Q4,2024,1,Jan,Q4,2024-Q4-01,Jan-2024,53,2024-01-31,2024-01-01,5th,2460315,5,5,5,,False,Friday,2023-2024,2023-24,45296,26
2024-01-06,2024-W01,2024-M01,2024-Q4,2024,1,Jan,Q4,2024-Q4-01,Jan-2024,53,2024-01-31,2024-01-01,6th,2460316,6,6,6,,False,Saturday,2023-2024,2023-24,45297,25
2024-01-07,2024-W01,2024-M01,2024-Q4,2024,1,Jan,Q4,2024-Q4-01,Jan-2024,53,2024-01-31,2024-01-01,7th,2460317,7,7,7,,False,Sunday,2023-2024,2023-24,45298,24
2024-01-08,2024-W02,2024-M01,2024-Q4,2024,1,Jan,Q4,2024-Q4-01,Jan-2024,53,2024-01-31,2024-01-01,8th,2460318,1,8,8,2024-03-31,True,Monday,2023-2024,2023-24,45299,23
2024-01-09,2024-W02,2024-M01,2024-Q4,2024,1,Jan,Q4,2024-Q4-01,Jan-2024,53,2024-01-31,2024-01-01,9th,2460319,2,9,9,,False,Tuesday,2023-2024,2023-24,45300,22
2024-01-10,2024-W02,2024-M01,2024-Q4,2024,1,Jan,Q4,2024-Q4-01,Jan-2024,53,2024-01-31,2024-01-01,10th,2460320,3,10,10,,False,Wednesday,2023-2024,2023-24,45301,21
2024-01-11,2024-W02,2024-M01,2024-Q4,2024,1,Jan,Q4,2024-Q4-01,Jan-2024,53,2024-01-31,2024-01-01,11th,2460321,4,11,11,,False,Thursday,2023-2024,2023-24,45302,20
2024-01-12,2024-W02,2024-M01,2024-Q4,2024,1,Jan,Q4,2024-Q4-01,Jan-2024,53,2024-01-31,2024-01-01,12th,2460322,5,12,12,,False,Friday,2023-2024,2023-24,45303,19
2024-01-13,2024-W02,2024-M01,2024-Q4,2024,1,Jan,Q4,2024-Q4-01,Jan-2024,53,2024-01-31,2024-01-01,13th,2460323,6,13,13,,False,Saturday,2023-2024,2023-24,45304,18
2024-01-14,2024-W02,2024-M01,2024-Q4,2024,1,Jan,Q4,2024-Q4-01,Jan-2024,53,2024-01-31,2024-01-01,14th,2460324,7,14,14,,False,Sunday,2023-2024,2023-24,45305,17
2024-01-15,2024-W03,2024-M01,2024-Q4,2024,1,Jan,Q4,2024-Q4-01,Jan-2024,53,2024-01-31,2024-01-01,15th,2460325,1,15,15,2024-04-07,True,Monday,2023-2024,2023-24,45306,16
2024-01-16,2024-W03,2024-M01,2024-Q4,2024,1,Jan,Q4,2024-Q4-01,Jan-2024,53,2024-01-31,2024-01-01,16th,2460326,2,16,16,,False,Tuesday,2023-2024,2023-24,45307,15
2024-01-17,2024-W03,2024-M01,2024-Q4,2024,1,Jan,Q4,2024-Q4-01,Jan-2024,53,2024-01-31,2024-01-01,17th,2460327,3,17,17,,False,Wednesday,2023-2024,2023-24,45308,14
2024-01-18,2024-W03,2024-M01,2024-Q4,2024,1,Jan,Q4,2024-Q4-01,Jan-2024,53,2024-01-31,2024-01-01,18th,2460328,4,18,18,,False,Thursday,2023-2024,2023-24,45309,13
2024-01-19,2024-W03,2024-M01,2024-Q4,2024,1,Jan,Q4,2024-Q4-01,Jan-2024,53,2024-01-31,2024-01-01,19th,2460329,5,19,19,,False,Friday,2023-2024,2023-24,45310,12
2024-01-20,2024-W03,2024-M01,2024-Q4,2024,1,Jan,Q4,2024-Q4-01,Jan-2024,53,2024-01-31,2024-01-01,20th,2460330,6,20,20,,False,Saturday,2023-2024,2023-24,45311,11
2024-01-21,2024-W03,2024-M01,2024-Q4,2024,1,Jan,Q4,2024-Q4-01,Jan-2024,53,2024-01-31,2024-01-01,21st,2460331,7,21,21,,False,Sunday,2023-2024,2023-24,45312,10
2024-01-22,2024-W04,2024-M01,2024-Q4,2024,1,Jan,Q4,2024-Q4-01,Jan-2024,53,2024-01-31,2024-01-01,22nd,2460332,1,22,22,2024-04-14,True,Monday,2023-2024,2023-24,45313,9
2024-01-23,2024-W04,2024-M01,2024-Q4,2024,1,Jan,Q4,2024-Q4-01,Jan-2024,53,2024-01-31,2024-01-01,23rd,2460333,2,23,23,,False,Tuesday,2023-2024,2023-24,45314,8
2024-01-24,2024-W04,2024-M01,2024-Q4,2024,1,Jan,Q4,2024-Q4-01,Jan-2024,53,2024-01-31,2024-01-01,24th,2460334,3,24,24,,False,Wednesday,2023-2024,2023-24,45315,7
2024-01-25,2024-W04,2024-M01,2024-Q4,2024,1,Jan,Q4,2024-Q4-01,Jan-2024,53,2024-01-31,2024-01-01,25th,2460335,4,25,25,,False,Thursday,2023-2024,2023-24,45316,6
2024-01-26,2024-W04,2024-M01,2024-Q4,2024,1,Jan,Q4,2024-Q4-01,Jan-2024,53,2024-01-31,2024-01-01,26th,2460336,5,26,26,,False,Friday,2023-2024,2023-24,45317,5
2024-01-27,2024-W04,2024-M01,2024-Q4,2024,1,Jan,Q4,2024-Q4-01,Jan-2024,53,2024-01-31,2024-01-01,27th,2460337,6,27,27,,False,Saturday,2023-2024,2023-24,45318,4
2024-01-28,2024-W04,2024-M01,2024-Q4,2024,1,Jan,Q4,2024-Q4-01,Jan-2024,53,2024-01-31,2024-01-01,28th,2460338,7,28,28,,False,Sunday,2023-2024,2023-24,45319,3
2024-01-29,2024-W05,2024-M01,2024-Q4,2024,1,Jan,Q4,2024-Q4-01,Jan-2024,53,2024-01-31,2024-01-01,29th,2460339,1,29,29,2024-04-21,True,Monday,2023-2024,2023-24,45320,2
2024-01-30,2024-W05,2024-M01,2024-Q4,2024,1,Jan,Q4,2024-Q4-01,Jan-2024,53,2024-01-31,2024-01-01,30th,2460340,2,30,30,,False,Tuesday,2023-2024,2023-24,45321,1
2024-01-31,2024-W05,2024-M01,2024-Q4,2024,1,Jan,Q4,2024-Q4-01,Jan-2024,53,2024-01-31,2024-01-01,31st,2460341,3,31,31,,False,Wednesday,2023-2024,2023-24,45322,0
2024-02-01,2024-W05,2024-M02,2024-Q4,2024,2,Feb,Q4,2024-Q4-02,Feb-2024,53,2024-02-29,2024-02-01,1st,2460342,4,1,32,,False,Thursday,2023-2024,2023-24,45323,28
2024-02-02,2024-W05,2024-M02,2024-Q4,2024,2,Feb,Q4,2024-Q4-02,Feb-2024,53,2024-02-29,2024-02-01,2nd,2460343,5,2,33,,False,Friday,2023-2024,2023-24,45324,27
2024-02-03,2024-W05,2024-M02,2024-Q4,2024,2,Feb,Q4,2024-Q4-02,Feb-2024,53,2024-02-29,2024-02-01,3rd,2460344,6,3,34,,False,Saturday,2023-2024,2023-24,45325,26
2024-02-04,2024-W05,2024-M02,2024-Q4,2024,2,Feb,Q4,2024-Q4-02,Feb-2024,53,2024-02-29,2024-02-01,4th,2460345,7,4,35,,False,Sunday,2023-2024,2023-24,45326,25
2024-02-05,2024-W06,2024-M02,2024-Q4,2024,2,Feb,Q4,2024-Q4-02,Feb-2024,53,2024-02-29,2024-02-01,5th,2460346,1,5,36,2024-04-28,True,Monday,2023-2024,2023-24,45327,24
2024-02-06,2024-W06,2024-M02,2024-Q4,2024,2,Feb,Q4,2024-Q4-02,Feb-2024,53,2024-02-29,2024-02-01,6th,2460347,2,6,37,,False,Tuesday,2023-2024,2023-24,45328,23
2024-02-07,2024-W06,2024-M02,2024-Q4,2024,2,Feb,Q4,2024-Q4-02,Feb-2024,53,2024-02-29,2024-02-01,7th,2460348,3,7,38,,False,Wednesday,2023-2024,2023-24,45329,22
2024-02-08,2024-W06,2024-M02,2024-Q4,2024,2,Feb,Q4,2024-Q4-02,Feb-2024,53,2024-02-29,2024-02-01,8th,2460349,4,8,39,,False,Thursday,2023-2024,2023-24,45330,21
2024-02-09,2024-W06,2024-M02,2024-Q4,2024,2,Feb,Q4,2024-Q4-02,Feb-2024,53,2024-02-29,2024-02-01,9th,2460350,5,9,40,,False,Friday,2023-2024,2023-24,45331,20
2024-02-10,2024-W06,2024-M02,2024-Q4,2024,2,Feb,Q4,2024-Q4-02,Feb-2024,53,2024-02-29,2024-02-01,10th,2460351,6,10,41,,False,Saturday,2023-2024,2023-24,45332,19
2024-02-11,2024-W06,2024-M02,2024-Q4,2024,2,Feb,Q4,2024-Q4-02,Feb-2024,53,2024-02-29,2024-02-01,11th,2460352,7,11,42,,False,Sunday,2023-2024,2023-24,45333,18
2024-02-12,2024-W07,2024-M02,2024-Q4,2024,2,Feb,Q4,2024-Q4-02,Feb-2024,53,2024-02-29,2024-02-01,12th,2460353,1,12,43,2024-05-05,True,Monday,2023-2024,2023-24,45334,17
2024-02-13,2024-W07,2024-M02,2024-Q4,2024,2,Feb,Q4,2024-Q4-02,Feb-2024,53,2024-02-29,2024-02-01,13th,2460354,2,13,44,,False,Tuesday,2023-2024,2023-24,45335,16
2024-02-14,2024-W07,2024-M02,2024-Q4,2024,2,Feb,Q4,2024-Q4-02,Feb-2024,53,2024-02-29,2024-02-01,14th,2460355,3,14,45,,False,Wednesday,2023-2024,2023-24,45336,15
2024-02-15,2024-W07,2024-M02,2024-Q4,2024,2,Feb,Q4,2024-Q4-02,Feb-2024,53,2024-02-29,2024-02-01,15th,2460356,4,15,46,,False,Thursday,2023-2024,2023-24,45337,14
2024-02-16,2024-W07,2024-M02,2024-Q4,2024,2,Feb,Q4,2024-Q4-02,Feb-2024,53,2024-02-29,2024-02-01,16th,2460357,5,16,47,,False,Friday,2023-2024,2023-24,45338,13
2024-02-17,2024-W07,2024-M02,2024-Q4,2024,2,Feb,Q4,2024-Q4-02,Feb-2024,53,2024-02-29,2024-02-01,17th,2460358,6,17,48,,False,Saturday,2023-2024,2023-24,45339,12
2024-02-18,2024-W07,2024-M02,2024-Q4,2024,2,Feb,Q4,2024-Q4-02,Feb-2024,53,2024-02-29,2024-02-01,18th,2460359,7,18,49,,False,Sunday,2023-2024,2023-24,45340,11
2024-02-19,2024-W08,2024-M02,2024-Q4,2024,2,Feb,Q4,2024-Q4-02,Feb-2024,53,2024-02-29,2024-02-01,19th,2460360,1,19,50,2024-05-12,True,Monday,2023-2024,2023-24,45341,10
2024-02-20,2024-W08,2024-M02,2024-Q4,2024,2,Feb,Q4,2024-Q4-02,Feb-2024,53,2024-02-29,2024-02-01,20th,2460361,2,20,51,,False,Tuesday,2023-2024,2023-24,45342,9
2024-02-21,2024-W08,2024-M02,2024-Q4,2024,2,Feb,Q4,2024-Q4-02,Feb-2024,53,2024-02-29,2024-02-01,21st,2460362,3,21,52,,False,Wednesday,2023-2024,2023-24,45343,8
2024-02-22,2024-W08,2024-M02,2024-Q4,2024,2,Feb,Q4,2024-Q4-02,Feb-2024,53,2024-02-29,2024-02-01,22nd,2460363,4,22,53,,False,Thursday,2023-2024,2023-24,45344,7
2024-02-23,2024-W08,2024-M02,2024-Q4,2024,2,Feb,Q4,2024-Q4-02,Feb-2024,53,2024-02-29,2024-02-01,23rd,2460364,5,23,54,,False,Friday,2023-2024,2023-24,45345,6
2024-02-24,2024-W08,2024-M02,2024-Q4,2024,2,Feb,Q4,2024-Q4-02,Feb-2024,53,2024-02-29,2024-02-01,24th,2460365,6,24,55,,False,Saturday,2023-2024,2023-24,45346,5
2024-02-25,2024-W08,2024-M02,2024-Q4,2024,2,Feb,Q4,2024-Q4-02,Feb-2024,53,2024-02-29,2024-02-01,25th,2460366,7,25,56,,False,Sunday,2023-2024,2023-24,45347,4
2024-02-26,2024-W09,2024-M02,2024-Q4,2024,2,Feb,Q4,2024-Q4-02,Feb-2024,53,2024-02-29,2024-02-01,26th,2460367,1,26,57,2024-05-19,True,Monday,2023-2024,2023-24,45348,3
2024-02-27,2024-W09,2024-M02,2024-Q4,2024,2,Feb,Q4,2024-Q4-02,Feb-2024,53,2024-02-29,2024-02-01,27th,2460368,2,27,58,,False,Tuesday,2023-2024,2023-24,45349,2
2024-02-28,2024-W09,2024-M02,2024-Q4,2024,2,Feb,Q4,2024-Q4-02,Feb-2024,53,2024-02-29,2024-02-01,28th,2460369,3,28,59,,False,Wednesday,2023-2024,2023-24,45350,1
2024-02-29,2024-W09,2024-M02,2024-Q4,2024,2,Feb,Q4,2024-Q4-02,Feb-2024,53,2024-02-29,2024-02-01,29th,2460370,4,29,60,,False,Thursday,2023-2024,2023-24,45351,0
2024-03-01,2024-W09,2024-M03,2024-Q4,2024,3,Mar,Q4,2024-Q4-03,Mar-2024,53,2024-03-31,2024-03-01,1st,2460371,5,1,61,,False,Friday,2023-2024,2023-24,45352,30
2024-03-02,2024-W09,2024-M03,2024-Q4,2024,3,Mar,Q4,2024-Q4-03,Mar-2024,53,2024-03-31,2024-03-01,2nd,2460372,6,2,62,,False,Saturday,2023-2024,2023-24,45353,29
2024-03-03,2024-W09,2024-M03,2024-Q4,2024,3,Mar,Q4,2024-Q4-03,Mar-2024,53,2024-03-31,2024-03-01,3rd,2460373,7,3,63,,False,Sunday,2023-2024,2023-24,45354,28
2024-03-04,2024-W10,2024-M03,2024-Q4,2024,3,Mar,Q4,2024-Q4-03,Mar-2024,53,2024-03-31,2024-03-01,4th,2460374,1,4,64,2024-05-26,True,Monday,2023-2024,2023-24,45355,27
2024-03-05,2024-W10,2024-M03,2024-Q4,2024,3,Mar,Q4,2024-Q4-03,Mar-2024,53,2024-03-31,2024-03-01,5th,2460375,2,5,65,,False,Tuesday,2023-2024,2023-24,45356,26
2024-03-06,2024-W10,2024-M03,2024-Q4,2024,3,Mar,Q4,2024-Q4-03,Mar-2024,53,2024-03-31,2024-03-01,6th,2460376,3,6,66,,False,Wednesday,2023-2024,2023-24,45357,25
2024-03-07,2024-W10,2024-M03,2024-Q4,2024,3,Mar,Q4,2024-Q4-03,Mar-2024,53,2024-03-31,2024-03-01,7th,2460377,4,7,67,,False,Thursday,2023-2024,2023-24,45358,24
2024-03-08,2024-W10,2024-M03,2024-Q4,2024,3,Mar,Q4,2024-Q4-03,Mar-2024,53,2024-03-31,2024-03-01,8th,2460378,5,8,68,,False,Friday,2023-2024,2023-24,45359,23
2024-03-09,2024-W10,2024-M03,2024-Q4,2024,3,Mar,Q4,2024-Q4-03,Mar-2024,53,2024-03-31,2024-03-01,9th,2460379,6,9,69,,False,Saturday,2023-2024,2023-24,45360,22
2024-03-10,2024-W10,2024-M03,2024-Q4,2024,3,Mar,Q4,2024-Q4-03,Mar-2024,53,2024-03-31,2024-03-01,10th,2460380,7,10,70,,False,Sunday,2023-2024,2023-24,45361,21
2024-03-11,2024-W11,2024-M03,2024-Q4,2024,3,Mar,Q4,2024-Q4-03,Mar-2024,53,2024-03-31,2024-03-01,11th,2460381,1,11,71,2024-06-02,True,Monday,2023-2024,2023-24,45362,20
2024-03-12,2024-W11,2024-M03,2024-Q4,2024,3,Mar,Q4,2024-Q4-03,Mar-2024,53,2024-03-31,2024-03-01,12th,2460382,2,12,72,,False,Tuesday,2023-2024,2023-24,45363,19
2024-03-13,2024-W11,2024-M03,2024-Q4,2024,3,Mar,Q4,2024-Q4-03,Mar-2024,53,2024-03-31,2024-03-01,13th,2460383,3,13,73,,False,Wednesday,2023-2024,2023-24,45364,18
2024-03-14,2024-W11,2024-M03,2024-Q4,2024,3,Mar,Q4,2024-Q4-03,Mar-2024,53,2024-03-31,2024-03-01,14th,2460384,4,14,74,,False,Thursday,2023-2024,2023-24,45365,17
2024-03-15,2024-W11,2024-M03,2024-Q4,2024,3,Mar,Q4,2024-Q4-03,Mar-2024,53,2024-03-31,2024-03-01,15th,2460385,5,15,75,,False,Friday,2023-2024,2023-24,45366,16
2024-03-16,2024-W11,2024-M03,2024-Q4,2024,3,Mar,Q4,2024-Q4-03,Mar-2024,53,2024-03-31,2024-03-01,16th,2460386,6,16,76,,False,Saturday,2023-2024,2023-24,45367,15
2024-03-17,2024-W11,2024-M03,2024-Q4,2024,3,Mar,Q4,2024-Q4-03,Mar-2024,53,2024-03-31,2024-03-01,17th,2460387,7,17,77,,False,Sunday,2023-2024,2023-24,45368,14
2024-03-18,2024-W12,2024-M03,2024-Q4,2024,3,Mar,Q4,2024-Q4-03,Mar-2024,53,2024-03-31,2024-03-01,18th,2460388,1,18,78,2024-06-09,True,Monday,2023-2024,2023-24,45369,13
2024-03-19,2024-W12,2024-M03,2024-Q4,2024,3,Mar,Q4,2024-Q4-03,Mar-2024,53,2024-03-31,2024-03-01,19th,2460389,2,19,79,,False,Tuesday,2023-2024,2023-24,45370,12
2024-03-20,2024-W12,2024-M03,2024-Q4,2024,3,Mar,Q4,2024-Q4-03,Mar-2024,53,2024-03-31,2024-03-01,20th,2460390,3,20,80,,False,Wednesday,2023-2024,2023-24,45371,11
2024-03-21,2024-W12,2024-M03,2024-Q4,2024,3,Mar,Q4,2024-Q4-03,Mar-2024,53,2024-03-31,2024-03-01,21st,2460391,4,21,81,,False,Thursday,2023-2024,2023-24,45372,10
2024-03-22,2024-W12,2024-M03,2024-Q4,2024,3,Mar,Q4,2024-Q4-03,Mar-2024,53,2024-03-31,2024-03-01,22nd,2460392,5,22,82,,False,Friday,2023-2024,2023-24,45373,9
2024-03-23,2024-W12,2024-M03,2024-Q4,2024,3,Mar,Q4,2024-Q4-03,Mar-2024,53,2024-03-31,2024-03-01,23rd,2460393,6,23,83,,False,Saturday,2023-2024,2023-24,45374,8
2024-03-24,2024-W12,2024-M03,2024-Q4,2024,3,Mar,Q4,2024-Q4-03,Mar-2024,53,2024-03-31,2024-03-01,24th,2460394,7,24,84,,False,Sunday,2023-2024,2023-24,45375,7
2024-03-25,2024-W13,2024-M03,2024-Q4,2024,3,Mar,Q4,2024-Q4-03,Mar-2024,53,2024-03-31,2024-03-01,25th,2460395,1,25,85,2024-06-16,True,Monday,2023-2024,2023-24,45376,6
2024-03-26,2024-W13,2024-M03,2024-Q4,2024,3,Mar,Q4,2024-Q4-03,Mar-2024,53,2024-03-31,2024-03-01,26th,2460396,2,26,86,,False,Tuesday,2023-2024,2023-24,45377,5
2024-03-27,2024-W13,2024-M03,2024-Q4,2024,3,Mar,Q4,2024-Q4-03,Mar-2024,53,2024-03-31,2024-03-01,27th,2460397,3,27,87,,False,Wednesday,2023-2024,2023-24,45378,4
2024-03-28,2024-W13,2024-M03,2024-Q4,2024,3,Mar,Q4,2024-Q4-03,Mar-2024,53,2024-03-31,2024-03-01,28th,2460398,4,28,88,,False,Thursday,2023-2024,2023-24,45379,3
2024-03-29,2024-W13,2024-M03,2024-Q4,2024,3,Mar,Q4,2024-Q4-03,Mar-2024,53,2024-03-31,2024-03-01,29th,2460399,5,29,89,,False,Friday,2023-2024,2023-24,45380,2
2024-03-30,2024-W13,2024-M03,2024-Q4,2024,3,Mar,Q4,2024-Q4-03,Mar-2024,53,2024-03-31,2024-03-01,30th,2460400,6,30,90,,False,Saturday,2023-2024,2023-24,45381,1
2024-03-31,2024-W13,2024-M03,2024-Q4,2024,3,Mar,Q4,2024-Q4-03,Mar-2024,53,2024-03-31,2024-03-01,31st,2460401,7,31,91,,False,Sunday,2023-2024,2023-24,45382,0
2024-04-01,2024-W14,2024-M04,2024-Q1,2024,4,Apr,Q1,2024-Q1-04,Apr-2024,53,2024-04-30,2024-04-01,1st,2460402,1,1,92,2024-06-23,True,Monday,2024-2025,2024-25,45383,29
2024-04-02,2024-W14,2024-M04,2024-Q1,2024,4,Apr,Q1,2024-Q1-04,Apr-2024,53,2024-04-30,2024-04-01,2nd,2460403,2,2,93,,False,Tuesday,2024-2025,2024-25,45384,28
2024-04-03,2024-W14,2024-M04,2024-Q1,2024,4,Apr,Q1,2024-Q1-04,Apr-2024,53,2024-04-30,2024-04-01,3rd,2460404,3,3,94,,False,Wednesday,2024-2025,2024-25,45385,27
2024-04-04,2024-W14,2024-M04,2024-Q1,2024,4,Apr,Q1,2024-Q1-04,Apr-2024,53,2024-04-30,2024-04-01,4th,2460405,4,4,95,,False,Thursday,2024-2025,2024-25,45386,26
2024-04-05,2024-W14,2024-M04,2024-Q1,2024,4,Apr,Q1,2024-Q1-04,Apr-2024,53,2024-04-30,2024-04-01,5th,2460406,5,5,96,,False,Friday,2024-2025,2024-25,45387,25
2024-04-06,2024-W14,2024-M04,2024-Q1,2024,4,Apr,Q1,2024-Q1-04,Apr-2024,53,2024-04-30,2024-04-01,6th,2460407,6,6,97,,False,Saturday,2024-2025,2024-25,45388,24
2024-04-07,2024-W14,2024-M04,2024-Q1,2024,4,Apr,Q1,2024-Q1-04,Apr-2024,53,2024-04-30,2024-04-01,7th,2460408,7,7,98,,False,Sunday,2024-2025,2024-25,45389,23
2024-04-08,2024-W15,2024-M04,2024-Q1,2024,4,Apr,Q1,2024-Q1-04,Apr-2024,53,2024-04-30,2024-04-01,8th,2460409,1,8,99,2024-06-30,True,Monday,2024-2025,2024-25,45390,22
2024-04-09,2024-W15,2024-M04,2024-Q1,2024,4,Apr,Q1,2024-Q1-04,Apr-2024,53,2024-04-30,2024-04-01,9th,2460410,2,9,100,,False,Tuesday,2024-2025,2024-25,45391,21
2024-04-10,2024-W15,2024-M04,2024-Q1,2024,4,Apr,Q1,2024-Q1-04,Apr-2024,53,2024-04-30,2024-04-01,10th,2460411,3,10,101,,False,Wednesday,2024-2025,2024-25,45392,20
2024-04-11,2024-W15,2024-M04,2024-Q1,2024,4,Apr,Q1,2024-Q1-04,Apr-2024,53,2024-04-30,2024-04-01,11th,2460412,4,11,102,,False,Thursday,2024-2025,2024-25,45393,19
2024-04-12,2024-W15,2024-M04,2024-Q1,2024,4,Apr,Q1,2024-Q1-04,Apr-2024,53,2024-04-30,2024-04-01,12th,2460413,5,12,103,,False,Friday,2024-2025,2024-25,45394,18
2024-04-13,2024-W15,2024-M04,2024-Q1,2024,4,Apr,Q1,2024-Q1-04,Apr-2024,53,2024-04-30,2024-04-01,13th,2460414,6,13,104,,False,Saturday,2024-2025,2024-25,45395,17
2024-04-14,2024-W15,2024-M04,2024-Q1,2024,4,Apr,Q1,2024-Q1-04,Apr-2024,53,2024-04-30,2024-04-01,14th,2460415,7,14,105,,False,Sunday,2024-2025,2024-25,45396,16
2024-04-15,2024-W16,2024-M04,2024-Q1,2024,4,Apr,Q1,2024-Q1-04,Apr-2024,53,2024-04-30,2024-04-01,15th,2460416,1,15,106,2024-07-07,True,Monday,2024-2025,2024-25,45397,15
2024-04-16,2024-W16,2024-M04,2024-Q1,2024,4,Apr,Q1,2024-Q1-04,Apr-2024,53,2024-04-30,2024-04-01,16th,2460417,2,16,107,,False,Tuesday,2024-2025,2024-25,45398,14
2024-04-17,2024-W16,2024-M04,2024-Q1,2024,4,Apr,Q1,2024-Q1-04,Apr-2024,53,2024-04-30,2024-04-01,17th,2460418,3,17,108,,False,Wednesday,2024-2025,2024-25,45399,13
2024-04-18,2024-W16,2024-M04,2024-Q1,2024,4,Apr,Q1,2024-Q1-04,Apr-2024,53,2024-04-30,2024-04-01,18th,2460419,4,18,109,,False,Thursday,2024-2025,2024-25,45400,12
2024-04-19,2024-W16,2024-M04,2024-Q1,2024,4,Apr,Q1,2024-Q1-04,Apr-2024,53,2024-04-30,2024-04-01,19th,2460420,5,19,110,,False,Friday,2024-2025,2024-25,45401,11
2024-04-20,2024-W16,2024-M04,2024-Q1,2024,4,Apr,Q1,2024-Q1-04,Apr-2024,53,2024-04-30,2024-04-01,20th,2460421,6,20,111,,False,Saturday,2024-2025,2024-25,45402,10
2024-04-21,2024-W16,2024-M04,2024-Q1,2024,4,Apr,Q1,2024-Q1-04,Apr-2024,53,2024-04-30,2024-04-01,21st,2460422,7,21,112,,False,Sunday,2024-2025,2024-25,45403,9
2024-04-22,2024-W17,2024-M04,2024-Q1,2024,4,Apr,Q1,2024-Q1-04,Apr-2024,53,2024-04-30,2024-04-01,22nd,2460423,1,22,113,2024-07-14,True,Monday,2024-2025,2024-25,45404,8
2024-04-23,2024-W17,2024-M04,2024-Q1,2024,4,Apr,Q1,2024-Q1-04,Apr-2024,53,2024-04-30,2024-04-01,23rd,2460424,2,23,114,,False,Tuesday,2024-2025,2024-25,45405,7
2024-04-24,2024-W17,2024-M04,2024-Q1,2024,4,Apr,Q1,2024-Q1-04,Apr-2024,53,2024-04-30,2024-04-01,24th,2460425,3,24,115,,False,Wednesday,2024-2025,2024-25,45406,6
2024-04-25,2024-W17,2024-M04,2024-Q1,2024,4,Apr,Q1,2024-Q1-04,Apr-2024,53,2024-04-30,2024-04-01,25th,2460426,4,25,116,,False,Thursday,2024-2025,2024-25,45407,5
2024-04-26,2024-W17,2024-M04,2024-Q1,2024,4,Apr,Q1,2024-Q1-04,Apr-2024,53,2024-04-30,2024-04-01,26th,2460427,5,26,117,,False,Friday,2024-2025,2024-25,45408,4
2024-04-27,2024-W17,2024-M04,2024-Q1,2024,4,Apr,Q1,2024-Q1-04,Apr-2024,53,2024-04-30,2024-04-01,27th,2460428,6,27,118,,False,Saturday,2024-2025,2024-25,45409,3
2024-04-28,2024-W17,2024-M04,2024-Q1,2024,4,Apr,Q1,2024-Q1-04,Apr-2024,53,2024-04-30,2024-04-01,28th,2460429,7,28,119,,False,Sunday,2024-2025,2024-25,45410,2
2024-04-29,2024-W18,2024-M04,2024-Q1,2024,4,Apr,Q1,2024-Q1-04,Apr-2024,53,2024-04-30,2024-04-01,29th,2460430,1,29,120,2024-07-21,True,Monday,2024-2025,2024-25,45411,1
2024-04-30,2024-W18,2024-M04,2024-Q1,2024,4,Apr,Q1,2024-Q1-04,Apr-2024,53,2024-04-30,2024-04-01,30th,2460431,2,30,121,,False,Tuesday,2024-2025,2024-25,45412,0
2024-05-01,2024-W18,2024-M05,2024-Q1,2024,5,May,Q1,2024-Q1-05,May-2024,53,2024-05-31,2024-05-01,1st,2460432,3,1,122,,False,Wednesday,2024-2025,2024-25,45413,30
2024-05-02,2024-W18,2024-M05,2024-Q1,2024,5,May,Q1,2024-Q1-05,May-2024,53,2024-05-31,2024-05-01,2nd,2460433,4,2,123,,False,Thursday,2024-2025,2024-25,45414,29
2024-05-03,2024-W18,2024-M05,2024-Q1,2024,5,May,Q1,2024-Q1-05,May-2024,53,2024-05-31,2024-05-01,3rd,2460434,5,3,124,,False,Friday,2024-2025,2024-25,45415,28
2024-05-04,2024-W18,2024-M05,2024-Q1,2024,5,May,Q1,2024-Q1-05,May-2024,53,2024-05-31,2024-05-01,4th,2460435,6,4,125,,False,Saturday,2024-2025,2024-25,45416,27
2024-05-05,2024-W18,2024-M05,2024-Q1,2024,5,May,Q1,2024-Q1-05,May-2024,53,2024-05-31,2024-05-01,5th,2460436,7,5,126,,False,Sunday,2024-2025,2024-25,45417,26
2024-05-06,2024-W19,2024-M05,2024-Q1,2024,5,May,Q1,2024-Q1-05,May-2024,53,2024-05-31,2024-05-01,6th,2460437,1,6,127,2024-07-28,True,Monday,2024-2025,2024-25,45418,25
2024-05-07,2024-W19,2024-M05,2024-Q1,2024,5,May,Q1,2024-Q1-05,May-2024,53,2024-05-31,2024-05-01,7th,2460438,2,7,128,,False,Tuesday,2024-2025,2024-25,45419,24
2024-05-08,2024-W19,2024-M05,2024-Q1,2024,5,May,Q1,2024-Q1-05,May-2024,53,2024-05-31,2024-05-01,8th,2460439,3,8,129,,False,Wednesday,2024-2025,2024-25,45420,23
2024-05-09,2024-W19,2024-M05,2024-Q1,2024,5,May,Q1,2024-Q1-05,May-2024,53,2024-05-31,2024-05-01,9th,2460440,4,9,130,,False,Thursday,2024-2025,2024-25,45421,22
2024-05-10,2024-W19,2024-M05,2024-Q1,2024,5,May,Q1,2024-Q1-05,May-2024,53,2024-05-31,2024-05-01,10th,2460441,5,10,131,,False,Friday,2024-2025,2024-25,45422,21
2024-05-11,2024-W19,2024-M05,2024-Q1,2024,5,May,Q1,2024-Q1-05,May-2024,53,2024-05-31,2024-05-01,11th,2460442,6,11,132,,False,Saturday,2024-2025,2024-25,45423,20
2024-05-12,2024-W19,2024-M05,2024-Q1,2024,5,May,Q1,2024-Q1-05,May-2024,53,2024-05-31,2024-05-01,12th,2460443,7,12,133,,False,Sunday,2024-2025,2024-25,45424,19
2024-05-13,2024-W20,2024-M05,2024-Q1,2024,5,May,Q1,2024-Q1-05,May-2024,53,2024-05-31,2024-05-01,13th,2460444,1,13,134,2024-08-04,True,Monday,2024-2025,2024-25,45425,18
2024-05-14,2024-W20,2024-M05,2024-Q1,2024,5,May,Q1,2024-Q1-05,May-2024,53,2024-05-31,2024-05-01,14th,2460445,2,14,135,,False,Tuesday,2024-2025,2024-25,45426,17
2024-05-15,2024-W20,2024-M05,2024-Q1,2024,5,May,Q1,2024-Q1-05,May-2024,53,2024-05-31,2024-05-01,15th,2460446,3,15,136,,False,Wednesday,2024-2025,2024-25,45427,16
2024-05-16,2024-W20,2024-M05,2024-Q1,2024,5,May,Q1,2024-Q1-05,May-2024,53,2024-05-31,2024-05-01,16th,2460447,4,16,137,,False,Thursday,2024-2025,2024-25,45428,15
2024-05-17,2024-W20,2024-M05,2024-Q1,2024,5,May,Q1,2024-Q1-05,May-2024,53,2024-05-31,2024-05-01,17th,2460448,5,17,138,,False,Friday,2024-2025,2024-25,45429,14
2024-05-18,2024-W20,2024-M05,2024-Q1,2024,5,May,Q1,2024-Q1-05,May-2024,53,2024-05-31,2024-05-01,18th,2460449,6,18,139,,False,Saturday,2024-2025,2024-25,45430,13
2024-05-19,2024-W20,2024-M05,2024-Q1,2024,5,May,Q1,2024-Q1-05,May-2024,53,2024-05-31,2024-05-01,19th,2460450,7,19,140,,False,Sunday,2024-2025,2024-25,45431,12
2024-05-20,2024-W21,2024-M05,2024-Q1,2024,5,May,Q1,2024-Q1-05,May-2024,53,2024-05-31,2024-05-01,20th,2460451,1,20,141,2024-08-11,True,Monday,2024-2025,2024-25,45432,11
2024-05-21,2024-W21,2024-M05,2024-Q1,2024,5,May,Q1,2024-Q1-05,May-2024,53,2024-05-31,2024-05-01,21st,2460452,2,21,142,,False,Tuesday,2024-2025,2024-25,45433,10
2024-05-22,2024-W21,2024-M05,2024-Q1,2024,5,May,Q1,2024-Q1-05,May-2024,53,2024-05-31,2024-05-01,22nd,2460453,3,22,143,,False,Wednesday,2024-2025,2024-25,45434,9
2024-05-23,2024-W21,2024-M05,2024-Q1,2024,5,May,Q1,2024-Q1-05,May-2024,53,2024-05-31,2024-05-01,23rd,2460454,4,23,144,,False,Thursday,2024-2025,2024-25,45435,8
2024-05-24,2024-W21,2024-M05,2024-Q1,2024,5,May,Q1,2024-Q1-05,May-2024,53,2024-05-31,2024-05-01,24th,2460455,5,24,145,,False,Friday,2024-2025,2024-25,45436,7
2024-05-25,2024-W21,2024-M05,2024-Q1,2024,5,May,Q1,2024-Q1-05,May-2024,53,2024-05-31,2024-05-01,25th,2460456,6,25,146,,False,Saturday,2024-2025,2024-25,45437,6
2024-05-26,2024-W21,2024-M05,2024-Q1,2024,5,May,Q1,2024-Q1-05,May-2024,53,2024-05-31,2024-05-01,26th,2460457,7,26,147,,False,Sunday,2024-2025,2024-25,45438,5